Regional Weather Roundup
Issued by NWS

Home | Current Version | Previous Version | Graphics & Text | Print | Product List | Glossary On
Versions: 1 2 3 4 5 6 7 8 9 10 11 12 13 14 15 16 17 18 19 20 21 22 23 24 25 26 27 28 29 30 31 32 33 34 35 36 37 38 39 40 41 42 43 44 45 46 47 48 49 50
000
ASUS43 KBIS 210859
RWRND

NORTH DAKOTA REGIONAL WEATHER ROUNDUP
NATIONAL WEATHER SERVICE BISMARCK ND
400 AM CDT THU AUG 21 2014

NOTE: "FAIR" INDICATES FEW OR NO CLOUDS BELOW 12,000 FEET WITH NO
SIGNIFICANT WEATHER AND/OR OBSTRUCTIONS TO VISIBILITY.


NDZ001>003-009>011-017-211000-
NORTHWEST NORTH DAKOTA

CITY           SKY/WX    TMP DP  RH WIND       PRES   REMARKS
WILLISTON      FOG       58  57  97 CALM      29.81R VSB 1/4
MINOT          CLOUDY    65  63  93 NW7       29.75R
$$

NDZ018>021-031>035-040>046-211000-
SOUTHWEST NORTH DAKOTA

CITY           SKY/WX    TMP DP  RH WIND       PRES   REMARKS
BISMARCK       CLEAR     66  65  96 W5        29.72S
GARRISON         N/A     63  62  97 NW8       29.74S
HETTINGER ARPT CLEAR     56  54  93 NW6       29.83R
$$

NDZ004>008-012>016-024-026-027-054-211000-
NORTHEAST NORTH DAKOTA

CITY           SKY/WX    TMP DP  RH WIND       PRES   REMARKS
GRAND FORKS    CLOUDY    70  65  84 S12       29.75R
DEVILS LAKE    CLOUDY    70  64  83 E5        29.72R
$$

NDZ022-023-025-028>030-036>039-047>053-211000-
SOUTHEAST NORTH DAKOTA

CITY           SKY/WX    TMP DP  RH WIND       PRES   REMARKS
FARGO          LGT RAIN  70  67  90 SE14G22   29.69F
JAMESTOWN      CLOUDY    69  67  93 E6        29.71R
$$




USA.gov is the U.S. government's official web portal to all federal, state and local government web resources and services.